Location: Berg
(48.4333°N, 13.9167°E)
Time: 05:50:47
(UTC+00:00)

OBJECT-B - Pass Details

Date: 18 September 2020
Orbit: 421 x 433 km, 97.0° (Epoch: 09 October)

Event Time Altitude Azimuth Distance (km) Brightness Sun altitude
Exits shadow 19:01:25 68° 101° (E) 461 0.6 -18.7°
Maximum altitude 19:01:35 70° 76° (ENE) 456 0.6 -18.7°
Drops below altitude 10° 19:04:49 10° 352° (N) 1,523 4.0 -19.2°
Sets 19:06:50 0° 350° (N) 2,396 5.1 -19.5°
